Regional Weather Roundup
Issued by NWS

Home | Current Version | Previous Version | Graphics & Text | Print | Product List | Glossary On
Versions: 1 2 3 4 5 6 7 8 9 10 11 12 13 14 15 16 17 18 19 20 21 22 23 24 25 26 27 28 29 30 31 32 33 34 35 36 37 38 39 40 41 42 43 44 45 46 47 48 49 50
153
ASUS43 KLSX 281407
RWRMO

WEATHER SUMMARY FOR MISSOURI
NATIONAL WEATHER SERVICE SPRINGFIELD MO
900 AM CDT WED SEP 28 2016

NOTE: "FAIR" INDICATES FEW OR NO CLOUDS BELOW 12,000 FEET WITH NO
       SIGNIFICANT WEATHER AND/OR OBSTRUCTIONS TO VISIBILITY.
       CURRENT SKY AND/OR WEATHER CONDITIONS ARE NOT AVAILABLE FOR
       CHILLICOTHE AND FARMINGTON.

MOZ001>031-035>038-043-044-053-054-281500-
...NORTHERN AND WESTERN MISSOURI...

CITY           SKY/WX    TMP DP  RH WIND       PRES   REMARKS
KANSAS CTY INT SUNNY     56  45  66 N12       30.03R
KANSAS C DTWN  MOSUNNY   60  46  59 N8        30.01R
LEE`S SUMMIT   SUNNY     59  45  59 N10       30.01R
ST JOSEPH      SUNNY     55  46  71 N12G22    30.06R
CHILLICOTHE      N/A     56  46  69 N7        30.03R
KIRKSVILLE     MOSUNNY   53  43  68 N18G26    30.00R

$$
MOZ066>068-077>081-088>096-101>105-281500-
...SOUTHWEST MISSOURI...

CITY           SKY/WX    TMP DP  RH WIND       PRES   REMARKS
SPRINGFIELD    SUNNY     66  50  56 W9        29.93R
JOPLIN         SUNNY     64  52  64 W6        29.96R
BRANSON        SUNNY     66  48  52 SW7       29.94R

$$
MOZ032>034-039>042-045>050-055>058-069>072-281500-
...CENTRAL MISSOURI...

CITY           SKY/WX    TMP DP  RH WIND       PRES   REMARKS
COLUMBIA       SUNNY     59  46  62 N17       29.94R
JEFFERSON CITY   N/A     61  47  59 N8        29.93R
ROLLA          SUNNY     61  53  75 N14       29.90R
SEDALIA        SUNNY     62  47  57 N9        29.98R
WHITEMAN AFB   MOSUNNY   58  49  71 N13       29.97R
OSAGE BEACH    SUNNY     63  52  67 N6        29.94R

$$
MOZ051-052-059>065-281500-
...EAST CENTRAL MISSOURI...

CITY           SKY/WX    TMP DP  RH WIND       PRES   REMARKS
ST LOUIS INTL  CLOUDY    64  46  52 N18       29.87R
SPIRIT OF STL  PTSUNNY   63  51  65 N9        29.87R
ST CHARLES     CLOUDY    60  48  64 N16       29.88R

$$
MOZ072>076-082>087-097>100-106>115-281500-
...SOUTH CENTRAL AND SOUTHEAST MISSOURI...

CITY           SKY/WX    TMP DP  RH WIND       PRES   REMARKS
CAPE GIRARDEAU PTSUNNY   63  52  67 W9        29.84R
FARMINGTON     PTSUNNY   64  53  67 NW9G17    29.87R
POPLAR BLUFF   SUNNY     62  54  74 SW8       29.86S
WEST PLAINS    SUNNY     63  50  62 W10       29.92S

$$



USA.gov is the U.S. government's official web portal to all federal, state and local government web resources and services.